Flag for Germany Weather past 2 weeks in Coburg, Bavaria, Germany

Now
54 °F

Overcast.


Feels Like: 54 °F
Forecast: 52 / 65 °F
Wind: 1 mph from Southeast

Location: Bamberg

Current Time: Aug 30, 2014 at 2:58:07 AM

Latest Report: Aug 30, 2014 at 2:00 AM


Visibility: 8 mi

Pressure: 30.05 "Hg

Humidity: 100%

Dew point: 54 °F

Location of CoburgLocation

Historic Weather in Coburg — Graph

°F

Coburg temperature yesterday

Maximum temperature yesterday: 73 °F (at 6:00 PM)
Minimum temperature yesterday: 54 °F (at 5:00 AM)
Average temperature yesterday: 64 °F

Past Weeks' High & Low Weather Summary

 TemperatureHumidityPressure
High74 °F (Aug 28, 5:00 PM)100% (Aug 15, 2:00 AM)30.15 "Hg (Aug 15, 2:00 AM)
Low41 °F (Aug 25, 6:00 AM)39% (Aug 22, 5:00 PM)29.67 "Hg (Aug 26, 9:00 AM)
Average57 °F83%29.97 "Hg
* Reported Aug 15 1:00 AM — Aug 30 1:00 AM, Coburg, Weather by CustomWeather, © 2014

Note: Actual official high and low records may vary slightly from our data, if they occured in-between our weather recording intervals... More about our weather records

Advertising

Coburg weather history for previous 24 hours

 ConditionsComfort  
Time TempWeatherWind HumidityBarometerVisibility
1:00 AM
Aug 30
56 °FOvercast.1 mph99%30.05 "Hg11 mi
12:00 AM55 °FOvercast.1 mph100%30.05 "Hg14 mi
9:00 PM
Aug 29
59 °FOvercast.1 mph96%30.01 "Hg19 mi
8:00 PM63 °FOvercast.1 mph86%30.00 "Hg8 mi
7:00 PM71 °FSunny.2 mph59%29.98 "Hg43 mi
6:00 PM73 °FSunny.2 mph57%29.98 "Hg43 mi
5:00 PM71 °FScattered clouds.2 mph64%29.99 "Hg40 mi
4:00 PM71 °FPassing clouds.2 mph63%30.00 "Hg43 mi
3:00 PM72 °FPartly sunny.2 mph65%30.01 "Hg37 mi
2:00 PM69 °FOvercast.3 mph72%30.01 "Hg31 mi
1:00 PM69 °FOvercast.3 mph72%30.01 "Hg34 mi
12:00 PM69 °FOvercast.2 mph72%30.01 "Hg37 mi
11:00 AM69 °FOvercast.5 mph70%30.00 "Hg34 mi
10:00 AM64 °FOvercast.2 mph86%30.01 "Hg28 mi
9:00 AM63 °FOvercast.2 mph83%30.01 "Hg25 mi
8:00 AM61 °FOvercast.1 mph89%30.01 "Hg19 mi
7:00 AM59 °FOvercast.2 mph91%30.01 "Hg19 mi
6:00 AM58 °FOvercast.2 mph94%30.01 "Hg17 mi
5:00 AM54 °FOvercast.2 mph98%30.02 "Hg9 mi
4:00 AM55 °FPassing clouds.2 mph98%30.03 "Hg7 mi
3:00 AM57 °FPassing clouds.1 mph97%30.03 "Hg12 mi
2:00 AM60 °FOvercast.2 mph92%30.03 "Hg28 mi
Weather by CustomWeather, © 2014

See weather overviewHow to use our weather pages